Retour au catalogue

COSMOS 2251 DEB

ActifLEO
NORAD 35022·DEBRIS·🇷🇺 Russia

Lancé Jun 16, 1993 depuis Plesetsk Cosmodrome

Loading…

Prochains Passages (prochaines 24 heures)

TLE

PériméSource: Space-Track

Époque: Sep 7, 2026, 11:56 UTC

1 35022U 93036AGK 26250.49769748  .00001080  00000-0  21902-3 0  9998
2 35022  74.0251 167.5861 0047913 296.0334  63.5903 14.61809518630691

Suivez COSMOS 2251 DEB en temps réel avec AllMySat

Download on the App Store